Year,Month,Day,Hour,Minute,Value (Times are PST for temperature in C)
2008,08,11,00,00,13.30
2008,08,11,00,01,13.30
2008,08,11,00,02,13.30
2008,08,11,00,03,13.30
2008,08,11,00,04,13.30
2008,08,11,00,05,13.30
2008,08,11,00,06,13.20
2008,08,11,00,07,13.20
2008,08,11,00,08,13.20
2008,08,11,00,09,13.10
2008,08,11,00,10,13.10
2008,08,11,00,11,13.10
2008,08,11,00,12,13.00
2008,08,11,00,13,13.00
2008,08,11,01,02,12.90
2008,08,11,01,03,12.90
2008,08,11,01,04,12.90
2008,08,11,01,05,12.90
2008,08,11,01,06,12.80
2008,08,11,01,07,12.80
2008,08,11,01,08,12.80
2008,08,11,01,09,12.80
2008,08,11,01,10,12.80
2008,08,11,01,11,12.80
2008,08,11,01,12,12.80
2008,08,11,01,13,12.80
2008,08,11,01,14,12.80
2008,08,11,01,15,12.70
2008,08,11,01,16,12.70
2008,08,11,01,17,12.70
2008,08,11,01,18,12.70
2008,08,11,01,19,12.60
2008,08,11,01,20,12.60
2008,08,11,01,21,12.60
2008,08,11,01,22,12.60
2008,08,11,01,23,12.60
2008,08,11,01,24,12.60
2008,08,11,01,25,12.60
2008,08,11,01,26,12.60
2008,08,11,01,27,12.60
2008,08,11,01,28,12.60
2008,08,11,01,29,12.60
2008,08,11,01,30,12.70
2008,08,11,01,31,12.70
2008,08,11,01,32,12.70
2008,08,11,01,33,12.70
2008,08,11,01,34,12.70
2008,08,11,01,35,12.70
2008,08,11,01,36,12.70
2008,08,11,01,37,12.70
2008,08,11,01,38,12.70
2008,08,11,01,39,12.70
2008,08,11,01,40,12.70
2008,08,11,01,41,12.70
2008,08,11,01,42,12.70
2008,08,11,01,43,12.60
2008,08,11,01,44,12.60
2008,08,11,01,45,12.60
2008,08,11,01,46,12.60
2008,08,11,01,47,12.60
2008,08,11,01,48,12.60
2008,08,11,01,49,12.60
2008,08,11,01,50,12.60
2008,08,11,01,51,12.60
2008,08,11,01,52,12.50
2008,08,11,01,53,12.50
2008,08,11,01,54,12.50
2008,08,11,01,55,12.50
2008,08,11,01,56,12.50
2008,08,11,01,57,12.50
2008,08,11,01,58,12.50
2008,08,11,01,59,12.50
2008,08,11,02,00,12.50
2008,08,11,02,01,12.50
2008,08,11,02,02,12.40
2008,08,11,02,03,12.40
2008,08,11,02,04,12.40
2008,08,11,02,05,12.40
2008,08,11,02,06,12.40
2008,08,11,02,07,12.40
2008,08,11,02,08,12.40
2008,08,11,02,09,12.30
2008,08,11,02,10,12.30
2008,08,11,02,11,12.30
2008,08,11,02,12,12.30
2008,08,11,02,13,12.30
2008,08,11,02,14,12.30
2008,08,11,02,15,12.30
2008,08,11,02,16,12.30
2008,08,11,02,17,12.30
2008,08,11,02,18,12.20
2008,08,11,02,19,12.20
2008,08,11,02,20,12.20
2008,08,11,02,21,12.20
2008,08,11,02,22,12.20
2008,08,11,02,23,12.20
2008,08,11,02,24,12.20
2008,08,11,02,25,12.20
2008,08,11,02,26,12.20
2008,08,11,02,27,12.20
2008,08,11,02,28,12.20
2008,08,11,02,29,12.20
2008,08,11,02,30,12.20
2008,08,11,02,31,12.20
2008,08,11,02,32,12.20
2008,08,11,02,33,12.20
2008,08,11,02,34,12.20
2008,08,11,02,35,12.20
2008,08,11,02,36,12.20
2008,08,11,02,37,12.10
2008,08,11,02,38,12.10
2008,08,11,02,39,12.10
2008,08,11,02,40,12.10
2008,08,11,02,41,12.10
2008,08,11,02,42,12.10
2008,08,11,02,43,12.10
2008,08,11,02,44,12.00
2008,08,11,02,45,12.00
2008,08,11,02,46,12.00
2008,08,11,02,47,12.00
2008,08,11,02,48,12.00
2008,08,11,02,49,11.90
2008,08,11,02,50,11.90
2008,08,11,02,51,11.90
2008,08,11,02,52,11.90
2008,08,11,02,53,11.90
2008,08,11,02,54,11.80
2008,08,11,02,55,11.80
2008,08,11,02,56,11.80
2008,08,11,02,57,11.80
2008,08,11,02,58,11.80
2008,08,11,02,59,11.80
2008,08,11,03,00,11.80
2008,08,11,03,01,11.80
2008,08,11,03,02,11.80
2008,08,11,03,03,11.80
2008,08,11,03,04,11.80
2008,08,11,03,05,11.80
2008,08,11,03,06,11.80
2008,08,11,03,07,11.80
2008,08,11,03,08,11.80
2008,08,11,03,09,11.80
2008,08,11,03,10,11.80
2008,08,11,03,11,11.80
2008,08,11,03,12,11.80
2008,08,11,03,13,11.80
2008,08,11,03,14,11.80
2008,08,11,03,15,11.70
2008,08,11,03,16,11.70
2008,08,11,03,17,11.70
2008,08,11,03,18,11.70
2008,08,11,03,19,11.60
2008,08,11,03,20,11.60
2008,08,11,03,21,11.60
2008,08,11,03,22,11.60
2008,08,11,03,23,11.60
2008,08,11,03,24,11.60
2008,08,11,03,25,11.60
2008,08,11,03,26,11.60
2008,08,11,03,27,11.60
2008,08,11,03,28,11.60
2008,08,11,03,29,11.40
2008,08,11,03,30,11.40
2008,08,11,03,31,11.40
2008,08,11,03,32,11.40
2008,08,11,03,33,11.40
2008,08,11,03,34,11.40
2008,08,11,03,35,11.40
2008,08,11,03,36,11.40
2008,08,11,03,37,11.40
2008,08,11,03,38,11.40
2008,08,11,03,39,11.40
2008,08,11,03,40,11.40
2008,08,11,03,41,11.40
2008,08,11,03,42,11.40
2008,08,11,03,43,11.40
2008,08,11,03,44,11.40
2008,08,11,03,45,11.40
2008,08,11,03,46,11.40
2008,08,11,03,47,11.40
2008,08,11,03,48,11.40
2008,08,11,03,49,11.40
2008,08,11,03,50,11.40
2008,08,11,03,51,11.40
2008,08,11,03,52,11.40
2008,08,11,03,53,11.40
2008,08,11,03,54,11.40
2008,08,11,03,55,11.40
2008,08,11,03,56,11.40
2008,08,11,03,57,11.40
2008,08,11,03,58,11.30
2008,08,11,03,59,11.30
2008,08,11,04,00,11.30
2008,08,11,04,01,11.30
2008,08,11,04,02,11.30
2008,08,11,04,03,11.20
2008,08,11,04,04,11.20
2008,08,11,04,05,11.20
2008,08,11,04,06,11.20
2008,08,11,04,07,11.10
2008,08,11,04,08,11.10
2008,08,11,04,09,11.10
2008,08,11,04,10,11.10
2008,08,11,04,11,11.10
2008,08,11,04,12,11.10
2008,08,11,04,13,11.10
2008,08,11,04,14,11.00
2008,08,11,04,15,10.90
2008,08,11,04,16,10.90
2008,08,11,04,17,10.90
2008,08,11,04,18,10.90
2008,08,11,04,19,10.90
2008,08,11,04,20,10.90
2008,08,11,04,21,10.90
2008,08,11,04,22,10.90
2008,08,11,04,23,10.90
2008,08,11,04,24,10.90
2008,08,11,04,25,10.90
2008,08,11,04,26,10.90
2008,08,11,04,27,10.90
2008,08,11,04,28,10.90
2008,08,11,04,29,10.90
2008,08,11,04,30,10.90
2008,08,11,04,31,10.90
2008,08,11,04,32,10.80
2008,08,11,04,33,10.80
2008,08,11,04,34,10.80
2008,08,11,04,35,10.80
2008,08,11,04,36,10.80
2008,08,11,04,37,10.70
2008,08,11,04,38,10.70
2008,08,11,04,39,10.70
2008,08,11,04,40,10.70
2008,08,11,04,41,10.60
2008,08,11,04,42,10.60
2008,08,11,04,43,10.60
2008,08,11,04,44,10.60
2008,08,11,04,45,10.60
2008,08,11,04,46,10.60
2008,08,11,04,47,10.60
2008,08,11,04,48,10.60
2008,08,11,04,49,10.60
2008,08,11,04,50,10.60
2008,08,11,04,51,10.60
2008,08,11,04,52,10.50
2008,08,11,04,53,10.40
2008,08,11,04,54,10.40
2008,08,11,04,55,10.40
2008,08,11,04,56,10.40
2008,08,11,04,57,10.40
2008,08,11,04,58,10.40
2008,08,11,04,59,10.40
2008,08,11,05,00,10.40
2008,08,11,05,01,10.40
2008,08,11,05,02,10.40
2008,08,11,05,03,10.30
2008,08,11,05,04,10.30
2008,08,11,05,05,10.30
2008,08,11,05,06,10.30
2008,08,11,05,07,10.30
2008,08,11,05,08,10.20
2008,08,11,05,09,10.20
2008,08,11,05,10,10.20
2008,08,11,05,11,10.20
2008,08,11,05,12,10.20
2008,08,11,05,13,10.20
2008,08,11,05,14,10.20
2008,08,11,05,15,10.20
2008,08,11,05,16,10.20
2008,08,11,05,17,10.20
2008,08,11,05,18,10.10
2008,08,11,05,19,10.10
2008,08,11,05,20,10.20
2008,08,11,05,21,10.20
2008,08,11,05,22,10.20
2008,08,11,05,23,10.20
2008,08,11,05,24,10.20
2008,08,11,05,25,10.20
2008,08,11,05,26,10.20
2008,08,11,05,27,10.20
2008,08,11,05,28,10.20
2008,08,11,05,29,10.10
2008,08,11,05,30,10.10
2008,08,11,05,31,10.10
2008,08,11,05,32,10.10
2008,08,11,05,33,10.10
2008,08,11,05,34,10.10
2008,08,11,05,35,10.10
2008,08,11,05,36,10.10
2008,08,11,05,37,10.10
2008,08,11,05,38,10.10
2008,08,11,05,39,10.10
2008,08,11,05,40,10.10
2008,08,11,05,41,10.10
2008,08,11,05,42,10.10
2008,08,11,05,43,10.10
2008,08,11,05,44,10.10
2008,08,11,05,45,10.20
2008,08,11,05,46,10.20
2008,08,11,05,47,10.20
2008,08,11,05,48,10.20
2008,08,11,05,49,10.20
2008,08,11,05,50,10.20
2008,08,11,05,51,10.20
2008,08,11,05,52,10.20
2008,08,11,05,53,10.20
2008,08,11,05,54,10.20
2008,08,11,05,55,10.20
2008,08,11,05,56,10.20
2008,08,11,05,57,10.20
2008,08,11,05,58,10.10
2008,08,11,05,59,10.10
2008,08,11,06,00,10.10
2008,08,11,06,01,10.10
2008,08,11,06,02,10.10
2008,08,11,06,03,10.10
2008,08,11,06,04,10.10
2008,08,11,06,05,10.10
2008,08,11,06,06,10.10
2008,08,11,06,07,10.10
2008,08,11,06,08,10.10
2008,08,11,06,09,10.10
2008,08,11,06,10,10.10
2008,08,11,06,11,10.10
2008,08,11,06,12,10.10
2008,08,11,06,13,10.10
2008,08,11,06,14,10.10
2008,08,11,06,15,10.10
2008,08,11,06,16,10.10
2008,08,11,06,17,10.10
2008,08,11,06,18,10.00
2008,08,11,06,19,9.90
2008,08,11,06,20,9.90
2008,08,11,06,21,9.90
2008,08,11,06,22,9.90
2008,08,11,06,23,9.90
2008,08,11,06,24,9.90
2008,08,11,06,25,9.90
2008,08,11,06,26,9.90
2008,08,11,06,27,9.90
2008,08,11,06,28,9.90
2008,08,11,06,29,9.90
2008,08,11,06,30,9.90
2008,08,11,06,31,9.90
2008,08,11,06,32,9.90
2008,08,11,06,33,9.90
2008,08,11,06,34,9.90
2008,08,11,06,35,9.90
2008,08,11,06,36,10.00
2008,08,11,06,37,10.10
2008,08,11,06,38,10.10
2008,08,11,06,39,10.10
2008,08,11,06,40,10.10
2008,08,11,06,41,10.10
2008,08,11,06,42,10.10
2008,08,11,06,43,10.10
2008,08,11,06,44,10.10
2008,08,11,06,45,10.10
2008,08,11,06,46,10.10
2008,08,11,06,47,10.10
2008,08,11,06,48,10.20
2008,08,11,06,49,10.20
2008,08,11,06,50,10.20
2008,08,11,06,51,10.20
2008,08,11,06,52,10.20
2008,08,11,06,53,10.30
2008,08,11,06,54,10.30
2008,08,11,06,55,10.30
2008,08,11,06,56,10.30
2008,08,11,06,57,10.30
2008,08,11,06,58,10.40
2008,08,11,06,59,10.40
2008,08,11,07,00,10.40
2008,08,11,07,01,10.40
2008,08,11,07,02,10.40
2008,08,11,07,03,10.40
2008,08,11,07,04,10.50
2008,08,11,07,05,10.60
2008,08,11,07,06,10.60
2008,08,11,07,07,10.60
2008,08,11,07,08,10.60
2008,08,11,07,09,10.60
2008,08,11,07,10,10.60
2008,08,11,07,11,10.60
2008,08,11,07,12,10.70
2008,08,11,07,13,10.70
2008,08,11,07,14,10.70
2008,08,11,07,15,10.80
2008,08,11,07,16,10.80
2008,08,11,07,17,10.80
2008,08,11,07,18,10.90
2008,08,11,07,19,10.90
2008,08,11,07,20,10.90
2008,08,11,07,21,11.00
2008,08,11,07,22,11.10
2008,08,11,07,23,11.10
2008,08,11,07,24,11.10
2008,08,11,07,25,11.20
2008,08,11,07,26,11.20
2008,08,11,07,27,11.20
2008,08,11,07,28,11.30
2008,08,11,07,29,11.30
2008,08,11,07,30,11.30
2008,08,11,07,31,11.40
2008,08,11,07,32,11.40
2008,08,11,07,33,11.40
2008,08,11,07,34,11.40
2008,08,11,07,35,11.40
2008,08,11,07,36,11.40
2008,08,11,07,37,11.50
2008,08,11,07,38,11.60
2008,08,11,07,39,11.60
2008,08,11,07,40,11.60
2008,08,11,07,41,11.60
2008,08,11,07,42,11.70
2008,08,11,07,43,11.80
2008,08,11,07,44,11.80
2008,08,11,07,45,11.80
2008,08,11,07,46,11.80
2008,08,11,07,47,11.90
2008,08,11,07,48,12.00
2008,08,11,07,49,12.10
2008,08,11,07,50,12.20
2008,08,11,07,51,12.30
2008,08,11,07,52,12.40
2008,08,11,07,53,12.50
2008,08,11,07,54,12.50
2008,08,11,07,55,12.60
2008,08,11,07,56,12.60
2008,08,11,07,57,12.70
2008,08,11,07,58,12.70
2008,08,11,07,59,12.80
2008,08,11,08,00,12.80
2008,08,11,08,01,12.80
2008,08,11,08,02,12.80
2008,08,11,08,03,12.90
2008,08,11,08,04,12.90
2008,08,11,08,05,12.90
2008,08,11,08,06,13.00
2008,08,11,08,07,13.00
2008,08,11,08,08,13.10
2008,08,11,08,09,13.10
2008,08,11,08,10,13.20
2008,08,11,08,11,13.20
2008,08,11,08,12,13.30
2008,08,11,08,13,13.30
2008,08,11,08,14,13.30
2008,08,11,08,15,13.30
2008,08,11,08,16,13.40
2008,08,11,08,17,13.40
2008,08,11,08,18,13.40
2008,08,11,08,19,13.40
2008,08,11,08,20,13.50
2008,08,11,08,21,13.50
2008,08,11,08,22,13.60
2008,08,11,08,23,13.60
2008,08,11,08,24,13.60
2008,08,11,08,25,13.70
2008,08,11,08,26,13.70
2008,08,11,08,27,13.80
2008,08,11,08,28,13.90
2008,08,11,08,29,13.90
2008,08,11,08,30,14.00
2008,08,11,08,31,14.00
2008,08,11,08,32,14.10
2008,08,11,08,33,14.10
2008,08,11,08,34,14.20
2008,08,11,08,35,14.20
2008,08,11,08,36,14.30
2008,08,11,08,37,14.50
2008,08,11,08,38,14.50
2008,08,11,08,39,14.60
2008,08,11,08,40,14.60
2008,08,11,08,41,14.70
2008,08,11,08,42,14.80
2008,08,11,08,43,14.80
2008,08,11,08,44,14.80
2008,08,11,08,45,14.80
2008,08,11,08,46,14.90
2008,08,11,08,47,14.90
2008,08,11,08,48,14.90
2008,08,11,08,49,14.90
2008,08,11,08,50,15.00
2008,08,11,08,51,15.00
2008,08,11,08,52,15.00
2008,08,11,08,53,15.00
2008,08,11,08,54,15.00
2008,08,11,08,55,15.10
2008,08,11,08,56,15.10
2008,08,11,08,57,15.10
2008,08,11,08,58,15.10
2008,08,11,08,59,15.10
2008,08,11,09,00,15.10
2008,08,11,09,01,15.20
2008,08,11,09,02,15.20
2008,08,11,09,03,15.20
2008,08,11,09,04,15.20
2008,08,11,09,05,15.30
2008,08,11,09,06,15.30
2008,08,11,09,07,15.30
2008,08,11,09,08,15.30
2008,08,11,09,09,15.30
2008,08,11,09,10,15.30
2008,08,11,09,11,15.30
2008,08,11,09,12,15.30
2008,08,11,09,13,15.30
2008,08,11,09,14,15.30
2008,08,11,09,15,15.30
2008,08,11,09,16,15.30
2008,08,11,09,17,15.30
2008,08,11,09,18,15.30
2008,08,11,09,19,15.30
2008,08,11,09,20,15.30
2008,08,11,09,21,15.30
2008,08,11,09,22,15.30
2008,08,11,09,23,15.40
2008,08,11,09,24,15.40
2008,08,11,09,25,15.50
2008,08,11,09,26,15.50
2008,08,11,09,27,15.60
2008,08,11,09,28,15.60
2008,08,11,09,29,15.60
2008,08,11,09,30,15.70
2008,08,11,09,31,15.70
2008,08,11,09,32,15.80
2008,08,11,09,33,15.80
2008,08,11,09,34,15.80
2008,08,11,09,35,15.70
2008,08,11,09,36,15.70
2008,08,11,09,37,15.80
2008,08,11,09,38,15.80
2008,08,11,09,39,15.80
2008,08,11,09,40,15.80
2008,08,11,09,41,15.80
2008,08,11,09,42,15.80
2008,08,11,09,43,15.80
2008,08,11,09,44,15.80
2008,08,11,09,45,15.80
2008,08,11,09,46,15.80
2008,08,11,09,47,15.80
2008,08,11,09,48,15.90
2008,08,11,09,49,15.90
2008,08,11,09,50,15.90
2008,08,11,09,51,15.90
2008,08,11,09,52,15.90
2008,08,11,09,53,15.90
2008,08,11,09,54,15.90
2008,08,11,09,55,16.00
2008,08,11,09,56,16.10
2008,08,11,09,57,16.10
2008,08,11,09,58,16.10
2008,08,11,09,59,16.20
2008,08,11,10,00,16.30
2008,08,11,10,01,16.30
2008,08,11,10,02,16.40
2008,08,11,10,03,16.40
2008,08,11,10,04,16.40
2008,08,11,10,05,16.40
2008,08,11,10,06,16.50
2008,08,11,10,07,16.60
2008,08,11,10,08,16.70
2008,08,11,10,09,16.70
2008,08,11,10,10,16.70
2008,08,11,10,11,16.80
2008,08,11,10,12,16.80
2008,08,11,10,13,16.90
2008,08,11,10,14,17.00
2008,08,11,10,15,17.00
2008,08,11,10,16,17.00
2008,08,11,10,17,17.10
2008,08,11,10,18,17.00
2008,08,11,10,19,17.00
2008,08,11,10,20,17.00
2008,08,11,10,21,16.90
2008,08,11,10,22,16.90
2008,08,11,10,23,16.90
2008,08,11,10,24,16.90
2008,08,11,10,25,16.90
2008,08,11,10,26,17.00
2008,08,11,10,27,17.00
2008,08,11,10,28,17.00
2008,08,11,10,29,17.00
2008,08,11,10,30,17.00
2008,08,11,10,31,17.10
2008,08,11,10,32,17.10
2008,08,11,10,33,17.20
2008,08,11,10,34,17.20
2008,08,11,10,35,17.20
2008,08,11,10,36,17.20
2008,08,11,10,37,17.20
2008,08,11,10,38,17.30
2008,08,11,10,39,17.30
2008,08,11,10,40,17.30
2008,08,11,10,41,17.40
2008,08,11,10,42,17.60
2008,08,11,10,43,17.70
2008,08,11,10,44,17.80
2008,08,11,10,45,17.90
2008,08,11,10,46,17.90
2008,08,11,10,47,18.10
2008,08,11,10,48,18.10
2008,08,11,10,49,18.10
2008,08,11,10,50,18.10
2008,08,11,10,51,18.10
2008,08,11,10,52,18.10
2008,08,11,10,53,18.00
2008,08,11,10,54,17.90
2008,08,11,10,55,17.90
2008,08,11,10,56,17.80
2008,08,11,10,57,17.80
2008,08,11,10,58,17.90
2008,08,11,10,59,17.90
2008,08,11,11,00,17.80
2008,08,11,11,01,17.80
2008,08,11,11,02,17.70
2008,08,11,11,03,17.70
2008,08,11,11,04,17.70
2008,08,11,11,05,17.70
2008,08,11,11,06,17.70
2008,08,11,11,07,17.70
2008,08,11,11,08,17.60
2008,08,11,11,09,17.60
2008,08,11,11,10,17.70
2008,08,11,11,11,17.70
2008,08,11,11,12,17.70
2008,08,11,11,13,17.70
2008,08,11,11,14,17.70
2008,08,11,11,15,17.70
2008,08,11,11,16,17.60
2008,08,11,11,17,17.50
2008,08,11,11,18,17.50
2008,08,11,11,19,17.50
2008,08,11,11,20,17.60
2008,08,11,11,21,17.60
2008,08,11,11,22,17.60
2008,08,11,11,23,17.70
2008,08,11,11,24,17.80
2008,08,11,11,25,17.80
2008,08,11,11,26,17.90
2008,08,11,11,27,17.90
2008,08,11,11,28,17.90
2008,08,11,11,29,18.00
2008,08,11,11,30,18.10
2008,08,11,11,31,18.10
2008,08,11,11,32,18.10
2008,08,11,11,33,18.00
2008,08,11,11,34,18.00
2008,08,11,11,35,18.10
2008,08,11,11,36,18.20
2008,08,11,11,37,18.30
2008,08,11,11,38,18.40
2008,08,11,11,39,18.60
2008,08,11,11,40,18.60
2008,08,11,11,41,18.70
2008,08,11,11,42,18.90
2008,08,11,11,43,19.00
2008,08,11,11,44,19.10
2008,08,11,11,45,19.00
2008,08,11,11,46,19.00
2008,08,11,11,47,18.90
2008,08,11,11,48,18.90
2008,08,11,11,49,18.90
2008,08,11,11,50,18.90
2008,08,11,11,51,18.90
2008,08,11,11,52,18.90
2008,08,11,11,53,18.90
2008,08,11,11,54,18.90
2008,08,11,11,55,18.90
2008,08,11,11,56,18.90
2008,08,11,11,57,19.10
2008,08,11,11,58,19.10
2008,08,11,11,59,19.10
2008,08,11,12,00,19.10
2008,08,11,12,01,19.20
2008,08,11,12,02,19.30
2008,08,11,12,03,19.40
2008,08,11,12,04,19.50
2008,08,11,12,05,19.60
2008,08,11,12,06,19.70
2008,08,11,12,07,19.80
2008,08,11,12,08,19.90
2008,08,11,12,09,20.00
2008,08,11,12,10,20.10
2008,08,11,12,11,20.10
2008,08,11,12,12,20.10
2008,08,11,12,13,20.10
2008,08,11,12,14,19.90
2008,08,11,12,15,19.70
2008,08,11,12,16,19.70
2008,08,11,12,17,19.70
2008,08,11,12,18,19.60
2008,08,11,12,19,19.50
2008,08,11,12,20,19.40
2008,08,11,12,21,19.30
2008,08,11,12,22,19.20
2008,08,11,12,23,19.20
2008,08,11,12,24,19.10
2008,08,11,12,25,19.10
2008,08,11,12,26,19.10
2008,08,11,12,27,19.10
2008,08,11,12,28,19.10
2008,08,11,12,29,19.10
2008,08,11,12,30,19.30
2008,08,11,12,31,19.40
2008,08,11,12,32,19.40
2008,08,11,12,33,19.50
2008,08,11,12,34,19.50
2008,08,11,12,35,19.50
2008,08,11,12,36,19.60
2008,08,11,12,37,19.60
2008,08,11,12,38,19.70
2008,08,11,12,39,19.70
2008,08,11,12,40,19.80
2008,08,11,12,41,19.80
2008,08,11,12,42,19.90
2008,08,11,12,43,19.90
2008,08,11,12,44,19.90
2008,08,11,12,45,19.90
2008,08,11,12,46,19.90
2008,08,11,12,47,19.90
2008,08,11,12,48,19.80
2008,08,11,12,49,19.70
2008,08,11,12,50,19.70
2008,08,11,12,51,19.70
2008,08,11,12,52,19.60
2008,08,11,12,53,19.50
2008,08,11,12,54,19.40
2008,08,11,12,55,19.30
2008,08,11,12,56,19.30
2008,08,11,12,57,19.30
2008,08,11,12,58,19.40
2008,08,11,12,59,19.60
2008,08,11,13,00,19.70
2008,08,11,13,01,19.80
2008,08,11,13,02,19.90
2008,08,11,13,03,20.00
2008,08,11,13,04,20.20
2008,08,11,13,05,20.20
2008,08,11,13,06,20.30
2008,08,11,13,07,20.40
2008,08,11,13,08,20.50
2008,08,11,13,09,20.50
2008,08,11,13,10,20.60
2008,08,11,13,11,20.70
2008,08,11,13,12,20.70
2008,08,11,13,13,20.70
2008,08,11,13,14,20.70
2008,08,11,13,15,20.70
2008,08,11,13,16,20.70
2008,08,11,13,17,20.70
2008,08,11,13,18,20.70
2008,08,11,13,19,20.50
2008,08,11,13,20,20.30
2008,08,11,13,21,20.10
2008,08,11,13,22,19.90
2008,08,11,13,23,19.70
2008,08,11,13,24,19.60
2008,08,11,13,25,19.60
2008,08,11,13,26,19.60
2008,08,11,13,27,19.70
2008,08,11,13,28,19.90
2008,08,11,13,29,20.00
2008,08,11,13,30,20.10
2008,08,11,13,31,20.30
2008,08,11,13,32,20.40
2008,08,11,13,33,20.50
2008,08,11,13,34,20.40
2008,08,11,13,35,20.40
2008,08,11,13,36,20.30
2008,08,11,13,37,20.20
2008,08,11,13,38,20.20
2008,08,11,13,39,20.20
2008,08,11,13,40,20.10
2008,08,11,13,41,20.10
2008,08,11,13,42,20.10
2008,08,11,13,43,20.20
2008,08,11,13,44,20.30
2008,08,11,13,45,20.30
2008,08,11,13,46,20.40
2008,08,11,13,47,20.40
2008,08,11,13,48,20.40
2008,08,11,13,49,20.40
2008,08,11,13,50,20.30
2008,08,11,13,51,20.20
2008,08,11,13,52,20.20
2008,08,11,13,53,20.30
2008,08,11,13,54,20.30
2008,08,11,13,55,20.20
2008,08,11,13,56,20.30
2008,08,11,13,57,20.40
2008,08,11,13,58,20.50
2008,08,11,13,59,20.50
2008,08,11,14,00,20.40
2008,08,11,14,01,20.30
2008,08,11,14,02,20.20
2008,08,11,14,03,20.20
2008,08,11,14,04,20.30
2008,08,11,14,05,20.30
2008,08,11,14,06,20.30
2008,08,11,14,07,20.40
2008,08,11,14,08,20.50
2008,08,11,14,09,20.60
2008,08,11,14,10,20.60
2008,08,11,14,11,20.70
2008,08,11,14,12,20.70
2008,08,11,14,13,20.80
2008,08,11,14,14,20.90
2008,08,11,14,15,21.00
2008,08,11,14,16,21.10
2008,08,11,14,17,21.10
2008,08,11,14,18,21.30
2008,08,11,14,19,21.30
2008,08,11,14,20,21.30
2008,08,11,14,21,21.40
2008,08,11,14,22,21.40
2008,08,11,14,23,21.40
2008,08,11,14,24,21.30
2008,08,11,14,25,21.20
2008,08,11,14,26,21.10
2008,08,11,14,27,21.00
2008,08,11,14,28,21.00
2008,08,11,14,29,20.90
2008,08,11,14,30,20.80
2008,08,11,14,31,20.80
2008,08,11,14,32,20.80
2008,08,11,14,33,20.90
2008,08,11,14,34,20.90
2008,08,11,14,35,20.90
2008,08,11,14,36,20.90
2008,08,11,14,37,20.90
2008,08,11,14,38,20.70
2008,08,11,14,39,20.60
2008,08,11,14,40,20.60
2008,08,11,14,41,20.60
2008,08,11,14,42,20.50
2008,08,11,14,43,20.50
2008,08,11,14,44,20.40
2008,08,11,14,45,20.30
2008,08,11,14,46,20.20
2008,08,11,14,47,20.20
2008,08,11,14,48,20.20
2008,08,11,14,49,20.10
2008,08,11,14,50,20.10
2008,08,11,14,51,20.00
2008,08,11,14,52,20.10
2008,08,11,14,53,20.10
2008,08,11,14,54,20.10
2008,08,11,14,55,20.10
2008,08,11,14,56,19.90
2008,08,11,14,57,19.90
2008,08,11,14,58,19.90
2008,08,11,14,59,19.90
2008,08,11,15,00,19.90
2008,08,11,15,01,19.90
2008,08,11,15,02,19.90
2008,08,11,15,03,20.00
2008,08,11,15,04,20.10
2008,08,11,15,05,20.20
2008,08,11,15,06,20.20
2008,08,11,15,07,20.20
2008,08,11,15,08,20.20
2008,08,11,15,09,20.10
2008,08,11,15,10,20.20
2008,08,11,15,11,20.20
2008,08,11,15,12,20.10
2008,08,11,15,13,20.10
2008,08,11,15,14,20.10
2008,08,11,15,15,20.10
2008,08,11,15,16,20.20
2008,08,11,15,17,20.40
2008,08,11,15,18,20.50
2008,08,11,15,19,20.60
2008,08,11,15,20,20.60
2008,08,11,15,21,20.50
2008,08,11,15,22,20.40
2008,08,11,15,23,20.40
2008,08,11,15,24,20.40
2008,08,11,15,25,20.30
2008,08,11,15,26,20.40
2008,08,11,15,27,20.50
2008,08,11,15,28,20.60
2008,08,11,15,29,20.70
2008,08,11,15,30,20.80
2008,08,11,15,31,20.90
2008,08,11,15,32,21.00
2008,08,11,15,33,21.10
2008,08,11,15,34,21.20
2008,08,11,15,35,21.30
2008,08,11,15,36,21.30
2008,08,11,15,37,21.30
2008,08,11,15,38,21.20
2008,08,11,15,39,21.10
2008,08,11,15,40,20.90
2008,08,11,15,41,20.90
2008,08,11,15,42,20.80
2008,08,11,15,43,20.70
2008,08,11,15,44,20.60
2008,08,11,15,45,20.50
2008,08,11,15,46,20.50
2008,08,11,15,47,20.50
2008,08,11,15,48,20.40
2008,08,11,15,49,20.40
2008,08,11,15,50,20.50
2008,08,11,15,51,20.50
2008,08,11,15,52,20.60
2008,08,11,15,53,20.60
2008,08,11,15,54,20.60
2008,08,11,15,55,20.70
2008,08,11,15,56,20.80
2008,08,11,15,57,20.80
2008,08,11,15,58,20.90
2008,08,11,15,59,20.90
2008,08,11,16,00,20.80
2008,08,11,16,01,20.70
2008,08,11,16,02,20.60
2008,08,11,16,03,20.60
2008,08,11,16,04,20.50
2008,08,11,16,05,20.50
2008,08,11,16,06,20.40
2008,08,11,16,07,20.30
2008,08,11,16,08,20.30
2008,08,11,16,09,20.30
2008,08,11,16,10,20.30
2008,08,11,16,11,20.30
2008,08,11,16,12,20.40
2008,08,11,16,13,20.60
2008,08,11,16,14,20.70
2008,08,11,16,15,20.80
2008,08,11,16,16,20.90
2008,08,11,16,17,20.90
2008,08,11,16,18,20.90
2008,08,11,16,19,21.00
2008,08,11,16,20,21.00
2008,08,11,16,21,21.00
2008,08,11,16,22,20.90
2008,08,11,16,23,21.00
2008,08,11,16,24,21.00
2008,08,11,16,25,21.10
2008,08,11,16,26,21.30
2008,08,11,16,27,21.30
2008,08,11,16,28,21.30
2008,08,11,16,29,21.30
2008,08,11,16,30,21.30
2008,08,11,16,31,21.30
2008,08,11,16,32,21.30
2008,08,11,16,33,21.30
2008,08,11,16,34,21.40
2008,08,11,16,35,21.50
2008,08,11,16,36,21.60
2008,08,11,16,37,21.60
2008,08,11,16,38,21.70
2008,08,11,16,39,21.70
2008,08,11,16,40,21.80
2008,08,11,16,41,21.80
2008,08,11,16,42,21.70
2008,08,11,16,43,21.70
2008,08,11,16,44,21.60
2008,08,11,16,45,21.50
2008,08,11,16,46,21.40
2008,08,11,16,47,21.40
2008,08,11,16,48,21.40
2008,08,11,16,49,21.40
2008,08,11,16,50,21.40
2008,08,11,16,51,21.40
2008,08,11,16,52,21.40
2008,08,11,16,53,21.50
2008,08,11,16,54,21.40
2008,08,11,16,55,21.50
2008,08,11,16,56,21.60
2008,08,11,16,57,21.60
2008,08,11,16,58,21.60
2008,08,11,16,59,21.60
2008,08,11,17,00,21.50
2008,08,11,17,01,21.30
2008,08,11,17,02,21.30
2008,08,11,17,03,21.30
2008,08,11,17,04,21.30
2008,08,11,17,05,21.30
2008,08,11,17,06,21.30
2008,08,11,17,07,21.30
2008,08,11,17,08,21.40
2008,08,11,17,09,21.40
2008,08,11,17,10,21.30
2008,08,11,17,11,21.30
2008,08,11,17,12,21.30
2008,08,11,17,13,21.30
2008,08,11,17,14,21.30
2008,08,11,17,15,21.30
2008,08,11,17,16,21.30
2008,08,11,17,17,21.30
2008,08,11,17,18,21.30
2008,08,11,17,19,21.30
2008,08,11,17,20,21.30
2008,08,11,17,21,21.30
2008,08,11,17,22,21.40
2008,08,11,17,23,21.40
2008,08,11,17,24,21.30
2008,08,11,17,25,21.30
2008,08,11,17,26,21.30
2008,08,11,17,27,21.40
2008,08,11,17,28,21.50
2008,08,11,17,29,21.60
2008,08,11,17,30,21.70
2008,08,11,17,31,21.80
2008,08,11,17,32,21.80
2008,08,11,17,33,21.70
2008,08,11,17,34,21.60
2008,08,11,17,35,21.70
2008,08,11,17,36,21.80
2008,08,11,17,37,21.80
2008,08,11,17,38,21.80
2008,08,11,17,39,21.90
2008,08,11,17,40,21.90
2008,08,11,17,41,21.90
2008,08,11,17,42,21.90
2008,08,11,17,43,22.00
2008,08,11,17,44,22.00
2008,08,11,17,45,22.00
2008,08,11,17,46,22.00
2008,08,11,17,47,22.00
2008,08,11,17,48,22.00
2008,08,11,17,49,22.00
2008,08,11,17,50,22.00
2008,08,11,17,51,22.00
2008,08,11,17,52,22.00
2008,08,11,17,53,22.00
2008,08,11,17,54,22.00
2008,08,11,17,55,21.90
2008,08,11,17,56,21.90
2008,08,11,17,57,21.90
2008,08,11,17,58,22.00
2008,08,11,17,59,22.00
2008,08,11,18,00,21.90
2008,08,11,18,01,21.80
2008,08,11,18,02,21.70
2008,08,11,18,03,21.70
2008,08,11,18,04,21.60
2008,08,11,18,05,21.60
2008,08,11,18,06,21.60
2008,08,11,18,07,21.40
2008,08,11,18,08,21.40